sat.trackr.live / text

‹ back to catalog

QIANFAN-91

NORAD 66033 · 2025-233A

PAYLOAD ACTIVE UNKNOWN

§ Identity

Operator
Country
PRC
Launch date
2025-10-17
Launch site
TAISC
Launch vehicle
Mass (kg)
RCS (m²)

External: N2YO · Heavens-Above · Gunter

§ Orbital elements

Epoch: 2026-09-20T14:23:13.053696Z

Period
106.59 min
Inclination
89.0055°
Eccentricity
0.0001738
Mean motion
13.51029601 rev/d
Perigee alt
1,067.2 km
Apogee alt
1,069.8 km
Semi-major
7,446.6 km
B*
9.2518e-5
RAAN
33.5443°
Arg perigee
93.7914°
Mean anomaly
266.3436°
Rev number
4,606

§ Raw data

QIANFAN-911 66033U 25233A   26263.59945664  .00000072  00000+0  92518-4 0  99972 66033  89.0055  33.5443 0001738  93.7914 266.3436 13.51029601 46065

JSON: /api/v1/satellites/66033 · /tle

For live sub-satellite position, see the globe view (requires WebGL).

§ Visibility from observer

Set your observer location to see the next 7 days of passes ≥ 10°. The values pass through the URL so the page stays shareable.

No JS? Fill the form by hand. The geolocation button needs JavaScript.